PUA1502 SUMU-SCEL

Flight info

Callsign PUA1502
Flight time 2h 12m
Altitude 36000
Route DAGUS DCT UGIMI UL405 TOSOR UT687 UMKAL UMKAL7C
Aircraft A359/H-SDE2E3GHIJ3J4J5LM1ORWXY/LB1D1

Departure

Time 2026-05-04 20:27
Airport Carrasco General Cesáreo L. Berisso International Airport (SUMU)

Arrival

Time 2026-05-04 22:40
Airport Comodoro Arturo Merino Benítez International Airport (SCEL)
Time Latitude Longitude Altitude Speed Heading
2026-05-04 20:17 -34.83584 -56.01912 91 ft 4 kts 53°
2026-05-04 20:23 -34.83571 -56.01891 88 ft 6 kts 54°
2026-05-04 20:23 -34.83541 -56.01839 91 ft 9 kts 54°
2026-05-04 20:23 -34.83494 -56.01774 93 ft 11 kts 31°
2026-05-04 20:23 -34.83418 -56.01794 93 ft 13 kts 329°
2026-05-04 20:24 -34.83331 -56.01851 92 ft 15 kts 348°
2026-05-04 20:24 -34.83251 -56.01781 89 ft 16 kts 49°
2026-05-04 20:24 -34.83185 -56.01665 90 ft 18 kts 55°
2026-05-04 20:24 -34.83108 -56.01536 92 ft 20 kts 54°
2026-05-04 20:25 -34.83021 -56.01393 93 ft 22 kts 53°
2026-05-04 20:25 -34.82925 -56.01235 93 ft 24 kts 53°
2026-05-04 20:25 -34.82784 -56.01143 92 ft 23 kts
2026-05-04 20:25 -34.82704 -56.01216 90 ft 8 kts 259°
2026-05-04 20:26 -34.82739 -56.01277 91 ft 10 kts 233°
2026-05-04 20:26 -34.82743 -56.01283 93 ft 0 kts 233°
2026-05-04 20:26 -34.82756 -56.01304 91 ft 23 kts 233°
2026-05-04 20:27 -34.83014 -56.01726 93 ft 99 kts 234°
2026-05-04 20:27 -34.83560 -56.02618 92 ft 162 kts 233°
2026-05-04 20:27 -34.84262 -56.03785 688 ft 171 kts 231°
2026-05-04 20:27 -34.84971 -56.04898 1701 ft 162 kts 233°
2026-05-04 20:28 -34.85735 -56.05974 2297 ft 179 kts 232°
2026-05-04 20:28 -34.86628 -56.07189 2625 ft 206 kts 231°
2026-05-04 20:28 -34.87600 -56.08502 3146 ft 221 kts 232°
2026-05-04 20:28 -34.88671 -56.09929 3734 ft 236 kts 231°
2026-05-04 20:29 -34.89803 -56.11431 4453 ft 244 kts 231°
2026-05-04 20:29 -34.90971 -56.12966 5278 ft 249 kts 231°
2026-05-04 20:29 -34.92161 -56.14513 6182 ft 251 kts 232°
2026-05-04 20:29 -34.93333 -56.16090 7087 ft 250 kts 237°
2026-05-04 20:30 -34.94174 -56.17927 8012 ft 248 kts 253°
2026-05-04 20:30 -34.94602 -56.19960 8949 ft 249 kts 261°
2026-05-04 20:30 -34.94839 -56.22070 9839 ft 255 kts 265°
2026-05-04 20:30 -34.94979 -56.24299 10340 ft 275 kts 266°
2026-05-04 20:31 -34.95078 -56.26727 10680 ft 298 kts 267°
2026-05-04 20:31 -34.95175 -56.29346 11021 ft 320 kts 267°
2026-05-04 20:31 -34.95289 -56.32106 11604 ft 330 kts 266°
2026-05-04 20:31 -34.95422 -56.34913 12432 ft 333 kts 266°
2026-05-04 20:32 -34.95568 -56.37736 13313 ft 334 kts 266°
2026-05-04 20:32 -34.95723 -56.40567 14120 ft 336 kts 266°
2026-05-04 20:32 -34.95881 -56.43420 14840 ft 339 kts 266°
2026-05-04 20:32 -34.96042 -56.46300 15557 ft 342 kts 265°
2026-05-04 20:33 -34.96203 -56.49202 16299 ft 345 kts 265°
2026-05-04 20:33 -34.96364 -56.52132 17031 ft 348 kts 265°
2026-05-04 20:33 -34.96525 -56.55086 17783 ft 351 kts 265°
2026-05-04 20:33 -34.96687 -56.58067 18499 ft 354 kts 265°
2026-05-04 20:34 -34.96848 -56.61075 19137 ft 357 kts 265°
2026-05-04 20:34 -34.97011 -56.64107 19787 ft 360 kts 265°
2026-05-04 20:34 -34.97174 -56.67164 20429 ft 363 kts 264°
2026-05-04 20:34 -34.97337 -56.70244 21101 ft 365 kts 264°
2026-05-04 20:35 -34.97501 -56.73351 21771 ft 369 kts 264°
2026-05-04 20:35 -34.97665 -56.76480 22430 ft 372 kts 264°
2026-05-04 20:35 -34.97830 -56.79637 23101 ft 375 kts 264°
2026-05-04 20:35 -34.97996 -56.82825 23725 ft 378 kts 264°
2026-05-04 20:36 -34.98162 -56.86036 24290 ft 381 kts 264°
2026-05-04 20:36 -34.98328 -56.89275 24843 ft 385 kts 264°
2026-05-04 20:36 -34.98414 -56.92553 25405 ft 389 kts 267°
2026-05-04 20:36 -34.98401 -56.95862 25958 ft 392 kts 268°
2026-05-04 20:37 -34.98348 -56.99204 26508 ft 395 kts 268°
2026-05-04 20:37 -34.98289 -57.02571 27058 ft 398 kts 268°
2026-05-04 20:37 -34.98239 -57.05954 27602 ft 401 kts 268°
2026-05-04 20:37 -34.98202 -57.09373 28142 ft 404 kts 268°
2026-05-04 20:38 -34.98180 -57.12770 28667 ft 408 kts 267°
2026-05-04 20:38 -34.98161 -57.16286 29192 ft 411 kts 267°
2026-05-04 20:38 -34.98144 -57.19734 29702 ft 414 kts 267°
2026-05-04 20:38 -34.98127 -57.23254 30163 ft 417 kts 267°
2026-05-04 20:39 -34.98109 -57.26796 30614 ft 419 kts 267°
2026-05-04 20:39 -34.98088 -57.30348 31085 ft 420 kts 267°
2026-05-04 20:39 -34.98067 -57.33914 31545 ft 420 kts 267°
2026-05-04 20:39 -34.98044 -57.37481 31975 ft 422 kts 267°
2026-05-04 20:40 -34.98019 -57.41060 32380 ft 423 kts 267°
2026-05-04 20:40 -34.97994 -57.44649 32778 ft 424 kts 267°
2026-05-04 20:40 -34.97968 -57.48253 33167 ft 425 kts 267°
2026-05-04 20:40 -34.97940 -57.51837 33750 ft 421 kts 267°
2026-05-04 20:41 -34.97910 -57.55385 34314 ft 417 kts 267°
2026-05-04 20:41 -34.97880 -57.58904 34794 ft 414 kts 267°
2026-05-04 20:41 -34.97850 -57.62407 35230 ft 412 kts 267°
2026-05-04 20:41 -34.97819 -57.65887 35659 ft 410 kts 267°
2026-05-04 20:42 -34.97789 -57.69369 35877 ft 411 kts 267°
2026-05-04 20:42 -34.97757 -57.72847 35919 ft 410 kts 267°
2026-05-04 20:42 -34.97691 -57.79789 35901 ft 409 kts 267°
2026-05-04 20:43 -34.97596 -57.86732 35904 ft 411 kts 269°
2026-05-04 20:43 -34.96668 -57.93655 35919 ft 417 kts 279°
2026-05-04 20:44 -34.95127 -58.00496 35907 ft 419 kts 280°
2026-05-04 20:44 -34.93484 -58.07326 35911 ft 420 kts 281°
2026-05-04 20:45 -34.91840 -58.14156 35907 ft 420 kts 281°
2026-05-04 20:45 -34.90205 -58.20997 35901 ft 421 kts 281°
2026-05-04 20:46 -34.88583 -58.27799 35886 ft 421 kts 281°
2026-05-04 20:46 -34.87163 -58.33742 35891 ft 422 kts 281°
2026-05-04 20:47 -34.85520 -58.40600 35885 ft 422 kts 281°
2026-05-04 20:47 -34.83870 -58.47462 35883 ft 422 kts 281°
2026-05-04 20:48 -34.82395 -58.54363 35886 ft 419 kts 275°
2026-05-04 20:48 -34.81532 -58.61364 35881 ft 418 kts 274°
2026-05-04 20:49 -34.80773 -58.68380 35882 ft 418 kts 273°
2026-05-04 20:49 -34.80023 -58.75404 35907 ft 419 kts 274°
2026-05-04 20:50 -34.79258 -58.82431 35905 ft 419 kts 274°
2026-05-04 20:50 -34.78613 -58.88276 35905 ft 420 kts 274°
2026-05-04 20:51 -34.77698 -58.96507 35903 ft 420 kts 274°
2026-05-04 20:51 -34.77044 -59.02361 35900 ft 420 kts 274°
2026-05-04 20:52 -34.76252 -59.09413 35899 ft 421 kts 274°
2026-05-04 20:52 -34.75457 -59.16463 35896 ft 421 kts 274°
2026-05-04 20:53 -34.74657 -59.23515 35901 ft 421 kts 274°
2026-05-04 20:53 -34.73852 -59.30576 35899 ft 422 kts 274°
2026-05-04 20:54 -34.73043 -59.37635 35896 ft 422 kts 274°
2026-05-04 20:54 -34.72229 -59.44701 35893 ft 422 kts 275°
2026-05-04 20:55 -34.71410 -59.51773 35890 ft 423 kts 275°
2026-05-04 20:55 -34.70587 -59.58848 35898 ft 423 kts 275°
2026-05-04 20:56 -34.69760 -59.65928 35899 ft 423 kts 275°
2026-05-04 20:56 -34.68929 -59.73017 35898 ft 424 kts 275°
2026-05-04 20:57 -34.68088 -59.80107 35884 ft 424 kts 275°
2026-05-04 20:57 -34.67244 -59.87197 35886 ft 424 kts 275°
2026-05-04 20:58 -34.66396 -59.94295 35886 ft 424 kts 275°
2026-05-04 20:58 -34.65550 -60.01340 35887 ft 425 kts 275°
2026-05-04 20:59 -34.64695 -60.08432 35885 ft 425 kts 275°
2026-05-04 20:59 -34.63834 -60.15532 35884 ft 425 kts 275°
2026-05-04 21:00 -34.62968 -60.22638 35881 ft 425 kts 276°
2026-05-04 21:00 -34.62098 -60.29740 35882 ft 426 kts 276°
2026-05-04 21:01 -34.61224 -60.36850 35877 ft 426 kts 276°
2026-05-04 21:01 -34.60345 -60.43957 35879 ft 426 kts 276°
2026-05-04 21:02 -34.59462 -60.51064 35882 ft 426 kts 276°
2026-05-04 21:02 -34.58574 -60.58168 35879 ft 426 kts 276°
2026-05-04 21:03 -34.57683 -60.65271 35876 ft 426 kts 276°
2026-05-04 21:03 -34.56788 -60.72373 35879 ft 426 kts 276°
2026-05-04 21:04 -34.55889 -60.79467 35874 ft 425 kts 276°
2026-05-04 21:04 -34.54987 -60.86555 35875 ft 425 kts 276°
2026-05-04 21:05 -34.54088 -60.93588 35879 ft 425 kts 276°
2026-05-04 21:05 -34.53070 -61.00701 35869 ft 425 kts 278°
2026-05-04 21:06 -34.51948 -61.07692 35871 ft 425 kts 278°
2026-05-04 21:06 -34.50825 -61.14730 35870 ft 425 kts 278°
2026-05-04 21:07 -34.49722 -61.21766 35867 ft 425 kts 278°
2026-05-04 21:07 -34.48626 -61.28792 35866 ft 424 kts 278°
2026-05-04 21:08 -34.47527 -61.35815 35867 ft 424 kts 278°
2026-05-04 21:08 -34.46422 -61.42836 35865 ft 424 kts 278°
2026-05-04 21:09 -34.45316 -61.49844 35865 ft 424 kts 278°
2026-05-04 21:09 -34.44203 -61.56854 35861 ft 423 kts 278°
2026-05-04 21:10 -34.43081 -61.63851 35862 ft 423 kts 278°
2026-05-04 21:10 -34.41957 -61.70841 35859 ft 423 kts 278°
2026-05-04 21:11 -34.40830 -61.77824 35857 ft 422 kts 278°
2026-05-04 21:11 -34.39700 -61.84801 35857 ft 422 kts 278°
2026-05-04 21:12 -34.38566 -61.91773 35857 ft 422 kts 278°
2026-05-04 21:12 -34.37430 -61.98735 35855 ft 421 kts 278°
2026-05-04 21:13 -34.36299 -62.05640 35854 ft 421 kts 278°
2026-05-04 21:13 -34.35151 -62.12638 35852 ft 421 kts 278°
2026-05-04 21:14 -34.34015 -62.19533 35852 ft 421 kts 278°
2026-05-04 21:14 -34.32863 -62.26470 35851 ft 420 kts 278°
2026-05-04 21:15 -34.31710 -62.33397 35851 ft 420 kts 278°
2026-05-04 21:15 -34.30553 -62.40327 35849 ft 420 kts 278°
2026-05-04 21:16 -34.29395 -62.47244 35849 ft 420 kts 279°
2026-05-04 21:16 -34.28233 -62.54154 35842 ft 419 kts 279°
2026-05-04 21:17 -34.27067 -62.61065 35841 ft 419 kts 279°
2026-05-04 21:17 -34.25898 -62.67972 35843 ft 419 kts 279°
2026-05-04 21:18 -34.24725 -62.74874 35845 ft 419 kts 279°
2026-05-04 21:18 -34.23549 -62.81774 35841 ft 419 kts 279°
2026-05-04 21:19 -34.22367 -62.88677 35838 ft 419 kts 279°
2026-05-04 21:19 -34.21183 -62.95573 35839 ft 419 kts 279°
2026-05-04 21:20 -34.19993 -63.02474 35840 ft 419 kts 279°
2026-05-04 21:20 -34.18801 -63.09368 35837 ft 419 kts 279°
2026-05-04 21:21 -34.17604 -63.16262 35836 ft 420 kts 279°
2026-05-04 21:21 -34.16403 -63.23160 35837 ft 420 kts 279°
2026-05-04 21:22 -34.15198 -63.30054 35836 ft 420 kts 279°
2026-05-04 21:22 -34.13989 -63.36948 35836 ft 420 kts 279°
2026-05-04 21:23 -34.12683 -63.43815 35830 ft 420 kts 281°
2026-05-04 21:23 -34.11301 -63.50670 35831 ft 420 kts 281°
2026-05-04 21:24 -34.09934 -63.57482 35832 ft 420 kts 281°
2026-05-04 21:24 -34.08571 -63.64339 35830 ft 420 kts 281°
2026-05-04 21:25 -34.07211 -63.71195 35829 ft 420 kts 281°
2026-05-04 21:25 -34.05845 -63.78055 35827 ft 421 kts 281°
2026-05-04 21:26 -34.04476 -63.84911 35827 ft 421 kts 281°
2026-05-04 21:26 -34.03109 -63.91763 35826 ft 421 kts 281°
2026-05-04 21:27 -34.01736 -63.98620 35826 ft 421 kts 281°
2026-05-04 21:27 -34.00358 -64.05475 35821 ft 421 kts 281°
2026-05-04 21:28 -33.98977 -64.12328 35821 ft 421 kts 281°
2026-05-04 21:28 -33.97593 -64.19180 35821 ft 421 kts 281°
2026-05-04 21:29 -33.96206 -64.26027 35822 ft 421 kts 281°
2026-05-04 21:29 -33.94815 -64.32873 35821 ft 421 kts 282°
2026-05-04 21:30 -33.93419 -64.39721 35821 ft 421 kts 282°
2026-05-04 21:30 -33.92020 -64.46561 35822 ft 421 kts 282°
2026-05-04 21:31 -33.90051 -64.56863 35818 ft 420 kts 279°
2026-05-04 21:32 -33.88975 -64.63775 35817 ft 420 kts 279°
2026-05-04 21:32 -33.87889 -64.70689 35817 ft 420 kts 279°
2026-05-04 21:33 -33.86772 -64.77544 35818 ft 420 kts 279°
2026-05-04 21:33 -33.85628 -64.84441 35817 ft 420 kts 279°
2026-05-04 21:34 -33.84480 -64.91331 35819 ft 420 kts 279°
2026-05-04 21:34 -33.83327 -64.98227 35815 ft 420 kts 279°
2026-05-04 21:35 -33.82172 -65.05122 35818 ft 420 kts 280°
2026-05-04 21:35 -33.81013 -65.12012 35818 ft 420 kts 280°
2026-05-04 21:36 -33.79852 -65.18897 35823 ft 421 kts 280°
2026-05-04 21:36 -33.78684 -65.25792 35830 ft 421 kts 280°
2026-05-04 21:37 -33.77514 -65.32679 35830 ft 421 kts 280°
2026-05-04 21:37 -33.76338 -65.39569 35829 ft 421 kts 280°
2026-05-04 21:38 -33.75159 -65.46457 35827 ft 421 kts 280°
2026-05-04 21:38 -33.73984 -65.53302 35821 ft 421 kts 280°
2026-05-04 21:39 -33.72796 -65.60193 35819 ft 421 kts 280°
2026-05-04 21:39 -33.71604 -65.67083 35816 ft 421 kts 280°
2026-05-04 21:40 -33.70408 -65.73973 35809 ft 422 kts 280°
2026-05-04 21:40 -33.69207 -65.80870 35798 ft 422 kts 281°
2026-05-04 21:41 -33.68197 -65.86652 35795 ft 422 kts 281°
2026-05-04 21:41 -33.66996 -65.93502 35803 ft 423 kts 281°
2026-05-04 21:42 -33.65781 -66.00411 35802 ft 423 kts 281°
2026-05-04 21:42 -33.64562 -66.07320 35801 ft 423 kts 281°
2026-05-04 21:43 -33.63337 -66.14237 35788 ft 424 kts 281°
2026-05-04 21:43 -33.62106 -66.21161 35792 ft 425 kts 281°
2026-05-04 21:44 -33.60871 -66.28090 35789 ft 425 kts 281°
2026-05-04 21:44 -33.59630 -66.35025 35795 ft 425 kts 281°
2026-05-04 21:45 -33.58385 -66.41962 35794 ft 426 kts 281°
2026-05-04 21:45 -33.57135 -66.48898 35796 ft 426 kts 281°
2026-05-04 21:46 -33.55880 -66.55840 35787 ft 426 kts 281°
2026-05-04 21:46 -33.54621 -66.62784 35781 ft 426 kts 281°
2026-05-04 21:47 -33.53358 -66.69722 35781 ft 426 kts 281°
2026-05-04 21:47 -33.52091 -66.76664 35779 ft 426 kts 281°
2026-05-04 21:48 -33.50821 -66.83595 35782 ft 426 kts 281°
2026-05-04 21:48 -33.49546 -66.90533 35782 ft 426 kts 281°
2026-05-04 21:49 -33.48266 -66.97472 35779 ft 427 kts 281°
2026-05-04 21:49 -33.46983 -67.04409 35782 ft 426 kts 281°
2026-05-04 21:50 -33.45696 -67.11343 35784 ft 427 kts 281°
2026-05-04 21:50 -33.44404 -67.18277 35782 ft 427 kts 281°
2026-05-04 21:51 -33.43109 -67.25208 35782 ft 427 kts 281°
2026-05-04 21:51 -33.41809 -67.32143 35785 ft 427 kts 281°
2026-05-04 21:52 -33.40505 -67.39077 35787 ft 427 kts 281°
2026-05-04 21:52 -33.39197 -67.46005 35781 ft 427 kts 281°
2026-05-04 21:53 -33.37885 -67.52939 35784 ft 427 kts 281°
2026-05-04 21:53 -33.36568 -67.59869 35785 ft 427 kts 282°
2026-05-04 21:54 -33.35257 -67.66751 35785 ft 428 kts 282°
2026-05-04 21:54 -33.33931 -67.73692 35789 ft 428 kts 282°
2026-05-04 21:55 -33.32603 -67.80621 35791 ft 428 kts 282°
2026-05-04 21:55 -33.31271 -67.87554 35791 ft 428 kts 282°
2026-05-04 21:56 -33.29932 -67.94496 35788 ft 429 kts 282°
2026-05-04 21:56 -33.28589 -68.01436 35788 ft 429 kts 282°
2026-05-04 21:57 -33.27240 -68.08389 35791 ft 429 kts 282°
2026-05-04 21:57 -33.25886 -68.15343 35791 ft 430 kts 282°
2026-05-04 21:58 -33.24528 -68.22300 35790 ft 430 kts 282°
2026-05-04 21:58 -33.23164 -68.29262 35793 ft 431 kts 282°
2026-05-04 21:59 -33.21796 -68.36223 35791 ft 431 kts 282°
2026-05-04 21:59 -33.20422 -68.43189 35793 ft 431 kts 282°
2026-05-04 22:00 -33.19044 -68.50161 35791 ft 431 kts 282°
2026-05-04 22:00 -33.17661 -68.57131 35795 ft 432 kts 282°
2026-05-04 22:01 -33.16275 -68.64103 35795 ft 432 kts 282°
2026-05-04 22:01 -33.14879 -68.71077 35796 ft 432 kts 282°
2026-05-04 22:02 -33.13479 -68.78051 35795 ft 432 kts 282°
2026-05-04 22:02 -33.12077 -68.85025 35800 ft 433 kts 282°
2026-05-04 22:03 -33.10669 -68.92005 35800 ft 433 kts 282°
2026-05-04 22:03 -33.09258 -68.98981 35807 ft 433 kts 282°
2026-05-04 22:04 -33.07851 -69.05913 35810 ft 433 kts 282°
2026-05-04 22:04 -33.06428 -69.12893 35835 ft 434 kts 282°
2026-05-04 22:05 -33.05002 -69.19882 35853 ft 434 kts 282°
2026-05-04 22:05 -33.03572 -69.26863 35871 ft 434 kts 282°
2026-05-04 22:06 -33.02137 -69.33850 35901 ft 434 kts 283°
2026-05-04 22:06 -33.00697 -69.40833 35951 ft 434 kts 283°
2026-05-04 22:07 -32.99264 -69.47758 35985 ft 427 kts 282°
2026-05-04 22:07 -32.97849 -69.54592 36016 ft 423 kts 282°
2026-05-04 22:08 -32.96444 -69.61355 36037 ft 419 kts 282°
2026-05-04 22:08 -32.95040 -69.68087 36061 ft 417 kts 282°
2026-05-04 22:09 -32.93647 -69.74750 36097 ft 413 kts 282°
2026-05-04 22:09 -32.92261 -69.81362 36106 ft 411 kts 282°
2026-05-04 22:10 -32.90878 -69.87947 36121 ft 409 kts 282°
2026-05-04 22:10 -32.89498 -69.94485 36131 ft 406 kts 282°
2026-05-04 22:11 -32.88258 -70.01004 36130 ft 401 kts 277°
2026-05-04 22:11 -32.87620 -70.07595 36134 ft 400 kts 275°
2026-05-04 22:12 -32.87037 -70.14167 36131 ft 400 kts 276°
2026-05-04 22:12 -32.86432 -70.20741 36111 ft 400 kts 275°
2026-05-04 22:13 -32.85821 -70.27323 36106 ft 401 kts 276°
2026-05-04 22:13 -32.85206 -70.33912 36089 ft 401 kts 276°
2026-05-04 22:14 -32.84645 -70.39948 36071 ft 388 kts 276°
2026-05-04 22:14 -32.84351 -70.43072 36074 ft 373 kts 276°
2026-05-04 22:14 -32.84074 -70.46038 36064 ft 359 kts 276°
2026-05-04 22:15 -32.83525 -70.51877 36042 ft 355 kts 276°
2026-05-04 22:15 -32.83250 -70.54783 35899 ft 350 kts 276°
2026-05-04 22:15 -32.82976 -70.57670 35134 ft 355 kts 276°
2026-05-04 22:15 -32.82694 -70.60646 34039 ft 370 kts 276°
2026-05-04 22:16 -32.82404 -70.63688 33666 ft 370 kts 276°
2026-05-04 22:16 -32.82144 -70.66730 33314 ft 370 kts 273°
2026-05-04 22:16 -32.82436 -70.69769 32866 ft 374 kts 256°
2026-05-04 22:16 -32.83594 -70.72569 32351 ft 386 kts 240°
2026-05-04 22:17 -32.85507 -70.74888 31830 ft 400 kts 227°
2026-05-04 22:17 -32.87687 -70.76979 31642 ft 405 kts 227°
2026-05-04 22:17 -32.89847 -70.79125 31513 ft 404 kts 228°
2026-05-04 22:17 -32.91955 -70.81331 31307 ft 402 kts 230°
2026-05-04 22:18 -32.93880 -70.83718 30717 ft 398 kts 237°
2026-05-04 22:18 -32.95421 -70.86407 30380 ft 392 kts 245°
2026-05-04 22:18 -32.96603 -70.89318 29760 ft 388 kts 253°
2026-05-04 22:18 -32.97344 -70.92390 29446 ft 387 kts 261°
2026-05-04 22:19 -32.97666 -70.95561 28872 ft 386 kts 269°
2026-05-04 22:19 -32.97467 -70.98744 28506 ft 387 kts 279°
2026-05-04 22:19 -32.96727 -71.01822 28049 ft 388 kts 289°
2026-05-04 22:19 -32.95435 -71.04660 27555 ft 394 kts 301°
2026-05-04 22:20 -32.93613 -71.07114 27169 ft 400 kts 312°
2026-05-04 22:20 -32.91313 -71.09036 26782 ft 410 kts 324°
2026-05-04 22:20 -32.88633 -71.10308 26391 ft 421 kts 337°
2026-05-04 22:20 -32.85702 -71.10842 25935 ft 433 kts 350°
2026-05-04 22:21 -32.82660 -71.10544 25636 ft 446 kts
2026-05-04 22:21 -32.79669 -71.09453 25175 ft 454 kts 15°
2026-05-04 22:21 -32.76930 -71.07502 24856 ft 467 kts 33°
2026-05-04 22:21 -32.74656 -71.04696 24603 ft 474 kts 46°
2026-05-04 22:22 -32.72597 -71.01647 24170 ft 473 kts 46°
2026-05-04 22:22 -32.70564 -70.98575 23668 ft 471 kts 49°
2026-05-04 22:22 -32.68647 -70.95457 23323 ft 465 kts 51°
2026-05-04 22:22 -32.66878 -70.92248 22672 ft 465 kts 57°
2026-05-04 22:23 -32.65606 -70.88713 22008 ft 468 kts 71°
2026-05-04 22:23 -32.64972 -70.84936 21341 ft 468 kts 85°
2026-05-04 22:23 -32.65092 -70.81090 20707 ft 466 kts 99°
2026-05-04 22:23 -32.65956 -70.77421 20084 ft 459 kts 115°
2026-05-04 22:24 -32.67563 -70.74213 19468 ft 449 kts 132°
2026-05-04 22:24 -32.69793 -70.71686 18874 ft 439 kts 147°
2026-05-04 22:24 -32.72409 -70.69907 18274 ft 429 kts 162°
2026-05-04 22:24 -32.75243 -70.69000 17600 ft 417 kts 177°
2026-05-04 22:25 -32.78094 -70.69002 16935 ft 405 kts 192°
2026-05-04 22:25 -32.80769 -70.69861 16289 ft 394 kts 207°
2026-05-04 22:25 -32.83098 -70.71474 15655 ft 383 kts 222°
2026-05-04 22:25 -32.85086 -70.73545 15034 ft 378 kts 227°
2026-05-04 22:26 -32.86352 -70.74959 14624 ft 376 kts 227°
2026-05-04 22:26 -32.88883 -70.77764 13809 ft 375 kts 226°
2026-05-04 22:26 -32.90176 -70.79177 13382 ft 373 kts 226°
2026-05-04 22:26 -32.92058 -70.81271 12749 ft 368 kts 229°
2026-05-04 22:27 -32.93554 -70.83665 12260 ft 355 kts 246°
2026-05-04 22:27 -32.94276 -70.86400 11755 ft 342 kts 266°
2026-05-04 22:27 -32.93854 -70.89985 11137 ft 328 kts 295°
2026-05-04 22:27 -32.93067 -70.91539 10828 ft 323 kts 309°
2026-05-04 22:28 -32.91382 -70.93262 10356 ft 320 kts 329°
2026-05-04 22:28 -32.89297 -70.94141 9903 ft 319 kts 350°
2026-05-04 22:28 -32.87125 -70.94066 9390 ft 318 kts 11°
2026-05-04 22:28 -32.85081 -70.92995 8884 ft 319 kts 33°
2026-05-04 22:29 -32.83488 -70.91228 8388 ft 318 kts 46°
2026-05-04 22:29 -32.82048 -70.89247 7913 ft 315 kts 48°
2026-05-04 22:29 -32.80624 -70.87292 7502 ft 310 kts 47°
2026-05-04 22:29 -32.79288 -70.85320 7167 ft 303 kts 55°
2026-05-04 22:30 -32.78384 -70.83098 6842 ft 298 kts 72°
2026-05-04 22:30 -32.78140 -70.80693 6577 ft 291 kts 93°
2026-05-04 22:30 -32.78649 -70.78435 6516 ft 278 kts 115°
2026-05-04 22:30 -32.79841 -70.76590 6513 ft 289 kts 138°
2026-05-04 22:31 -32.81617 -70.75460 6504 ft 294 kts 165°
2026-05-04 22:31 -32.83643 -70.75376 6513 ft 294 kts 191°
2026-05-04 22:31 -32.85626 -70.75957 6505 ft 295 kts 196°
2026-05-04 22:31 -32.87603 -70.76632 6505 ft 296 kts 196°
2026-05-04 22:32 -32.89587 -70.77294 6511 ft 297 kts 195°
2026-05-04 22:32 -32.91575 -70.77944 6497 ft 296 kts 195°
2026-05-04 22:32 -32.93565 -70.78587 6500 ft 296 kts 195°
2026-05-04 22:32 -32.95532 -70.79217 6502 ft 289 kts 195°
2026-05-04 22:33 -32.97430 -70.79824 6506 ft 276 kts 195°
2026-05-04 22:33 -32.99273 -70.80411 6507 ft 274 kts 195°
2026-05-04 22:33 -33.01111 -70.80994 6504 ft 273 kts 195°
2026-05-04 22:33 -33.02948 -70.81579 6499 ft 273 kts 195°
2026-05-04 22:34 -33.04794 -70.82059 6501 ft 268 kts 186°
2026-05-04 22:34 -33.06638 -70.82089 6505 ft 263 kts 177°
2026-05-04 22:34 -33.08467 -70.81980 6501 ft 263 kts 176°
2026-05-04 22:34 -33.10292 -70.81863 6497 ft 263 kts 176°
2026-05-04 22:35 -33.12117 -70.81740 6344 ft 261 kts 176°
2026-05-04 22:35 -33.13925 -70.81619 6094 ft 257 kts 176°
2026-05-04 22:35 -33.15676 -70.81523 5799 ft 255 kts 177°
2026-05-04 22:35 -33.17455 -70.81432 5405 ft 257 kts 177°
2026-05-04 22:36 -33.19247 -70.81334 4998 ft 259 kts 177°
2026-05-04 22:36 -33.21046 -70.81238 4616 ft 259 kts 177°
2026-05-04 22:36 -33.22838 -70.81142 4269 ft 255 kts 177°
2026-05-04 22:36 -33.24548 -70.81050 3951 ft 238 kts 177°
2026-05-04 22:37 -33.26149 -70.80964 3660 ft 223 kts 178°
2026-05-04 22:37 -33.27644 -70.80884 3379 ft 205 kts 178°
2026-05-04 22:37 -33.29004 -70.80811 3155 ft 189 kts 178°
2026-05-04 22:37 -33.30276 -70.80743 2897 ft 176 kts 178°
2026-05-04 22:38 -33.31435 -70.80682 2681 ft 158 kts 177°
2026-05-04 22:38 -33.32477 -70.80613 2470 ft 144 kts 175°
2026-05-04 22:38 -33.33435 -70.80552 2315 ft 132 kts 178°
2026-05-04 22:38 -33.34343 -70.80523 2145 ft 130 kts 176°
2026-05-04 22:39 -33.35245 -70.80472 1962 ft 129 kts 176°
2026-05-04 22:39 -33.36147 -70.80426 1798 ft 130 kts 176°
2026-05-04 22:39 -33.37048 -70.80377 1665 ft 129 kts 175°
2026-05-04 22:39 -33.37946 -70.80325 1584 ft 125 kts 176°
2026-05-04 22:40 -33.38748 -70.80287 1582 ft 103 kts 177°
2026-05-04 22:40 -33.39214 -70.80263 1579 ft 35 kts 172°
2026-05-04 22:40 -33.39383 -70.80159 1576 ft 13 kts 148°
2026-05-04 22:40 -33.39403 -70.80144 1575 ft 0 kts 147°
2026-05-04 22:41 -33.39408 -70.80140 1575 ft 2 kts 147°
2026-05-04 22:41 -33.39438 -70.80117 1574 ft 8 kts 147°
2026-05-04 22:42 -33.39494 -70.80066 1572 ft 12 kts 139°
2026-05-04 22:42 -33.39529 -70.79966 1571 ft 15 kts 94°
2026-05-04 22:42 -33.39527 -70.79832 1571 ft 18 kts 87°
2026-05-04 22:42 -33.39542 -70.79715 1571 ft 9 kts 140°
2026-05-04 22:43 -33.39598 -70.79698 1571 ft 6 kts 174°
2026-05-04 22:43 -33.39599 -70.79698 1571 ft 0 kts 174°